| time (UTC) | temp F | wind direction | speed MPH | gust MPH | rain 1hr in | rain 24hr in | rain mn in | humidity % | barometer mb |
| 20260503210358 | 52 | 180 | 11.0 | 16.0 | 0.00 | 0.00 | 0.00 | 100 | |
| 20260503205958 | 52 | 197 | 10.0 | 17.0 | 0.00 | 0.00 | 0.00 | 100 | |
| 20260503205556 | 52 | 194 | 10.0 | 16.0 | 0.00 | 0.00 | 0.00 | 100 | |
| 20260503205156 | 52 | 201 | 10.0 | 15.0 | 0.00 | 0.00 | 0.00 | 100 | |
| 20260503204756 | 52 | 206 | 9.0 | 12.0 | 0.00 | 0.00 | 0.00 | 100 | |
| 20260503204347 | 52 | 193 | 9.0 | 13.0 | 0.00 | 0.00 | 0.00 | 100 | |
| 20260503203947 | 52 | 192 | 9.0 | 14.0 | 0.00 | 0.00 | 0.00 | 100 | |
| 20260503203545 | 53 | 154 | 8.0 | 11.0 | 0.00 | 0.00 | 0.00 | 100 | |
| 20260503203145 | 53 | 177 | 8.0 | 14.0 | 0.00 | 0.00 | 0.00 | 100 | |
| 20260503202745 | 53 | 187 | 7.0 | 11.0 | 0.00 | 0.00 | 0.00 | 100 | |
| 20260503202345 | 53 | 191 | 8.0 | 11.0 | 0.00 | 0.00 | 0.00 | 100 | |
| 20260503201945 | 53 | 202 | 8.0 | 12.0 | 0.00 | 0.00 | 0.00 | 100 | |
| 20260503201543 | 53 | 146 | 6.0 | 11.0 | 0.00 | 0.00 | 0.00 | 100 | |
| 20260503201143 | 53 | 208 | 6.0 | 9.0 | 0.00 | 0.00 | 0.00 | 100 | |
| 20260503200742 | 54 | 207 | 6.0 | 9.0 | 0.00 | 0.00 | 0.00 | 100 | |
| 20260503200342 | 54 | 184 | 6.0 | 10.0 | 0.00 | 0.00 | 0.00 | 100 | |
| 20260503195942 | 54 | 172 | 6.0 | 9.0 | 0.00 | 0.00 | 0.00 | 100 | |
| 20260503195540 | 55 | 171 | 5.0 | 6.0 | 0.00 | 0.00 | 0.00 | 100 | |
| 20260503195140 | 55 | 207 | 6.0 | 8.0 | 0.00 | 0.00 | 0.00 | 100 | |
| 20260503194740 | 55 | 211 | 6.0 | 8.0 | 0.00 | 0.00 | 0.00 | 100 | |
| 20260503194340 | 55 | 176 | 9.0 | 12.0 | 0.00 | 0.00 | 0.00 | 100 | |
| 20260503193940 | 55 | 188 | 8.0 | 11.0 | 0.00 | 0.00 | 0.00 | 100 | |
| 20260503193538 | 55 | 198 | 8.0 | 14.0 | 0.00 | 0.00 | 0.00 | 100 | |
| 20260503193138 | 55 | 169 | 9.0 | 16.0 | 0.00 | 0.00 | 0.00 | 100 | |
| 20260503192738 | 55 | 180 | 8.0 | 12.0 | 0.00 | 0.00 | 0.00 | 100 | |
| 20260503192337 | 55 | 204 | 8.0 | 11.0 | 0.00 | 0.00 | 0.00 | 100 | |
| 20260503191937 | 55 | 194 | 7.0 | 10.0 | 0.00 | 0.00 | 0.00 | 100 | |
| 20260503191536 | 56 | 192 | 8.0 | 13.0 | 0.00 | 0.00 | 0.00 | 100 | |
| 20260503191136 | 56 | 197 | 8.0 | 12.0 | 0.00 | 0.00 | 0.00 | 100 | |
| 20260503190736 | 56 | 196 | 6.0 | 12.0 | 0.00 | 0.00 | 0.00 | 100 | |
| 20260503190335 | 56 | 184 | 7.0 | 12.0 | 0.00 | 0.00 | 0.00 | 100 | |
| 20260503185935 | 56 | 209 | 8.0 | 12.0 | 0.00 | 0.00 | 0.00 | 100 | |
| 20260503185533 | 56 | 211 | 8.0 | 13.0 | 0.00 | 0.00 | 0.00 | 100 | |
| 20260503185133 | 56 | 173 | 9.0 | 15.0 | 0.00 | 0.00 | 0.00 | 100 | |
| 20260503184733 | 56 | 216 | 6.0 | 10.0 | 0.00 | 0.00 | 0.00 | 100 | |
| 20260503184333 | 57 | 199 | 7.0 | 10.0 | 0.00 | 0.00 | 0.00 | 100 | |
| 20260503183933 | 57 | 197 | 6.0 | 12.0 | 0.00 | 0.00 | 0.00 | 100 | |
| 20260503183531 | 57 | 179 | 9.0 | 12.0 | 0.00 | 0.00 | 0.00 | 100 | |
| 20260503183131 | 57 | 184 | 7.0 | 10.0 | 0.00 | 0.00 | 0.00 | 100 | |
| 20260503182731 | 57 | 178 | 7.0 | 11.0 | 0.00 | 0.00 | 0.00 | 100 | |
| 20260503182330 | 57 | 180 | 7.0 | 9.0 | 0.00 | 0.00 | 0.00 | 100 | |
| 20260503181930 | 57 | 154 | 7.0 | 9.0 | 0.00 | 0.00 | 0.00 | 100 | |
| 20260503181528 | 57 | 190 | 8.0 | 14.0 | 0.00 | 0.00 | 0.00 | 100 | |
| 20260503181128 | 57 | 184 | 7.0 | 11.0 | 0.00 | 0.00 | 0.00 | 100 | |
| 20260503180721 | 57 | 200 | 7.0 | 9.0 | 0.00 | 0.00 | 0.00 | 100 | |
| 20260503180321 | 57 | 208 | 6.0 | 10.0 | 0.00 | 0.00 | 0.00 | 100 | |
| 20260503175921 | 57 | 216 | 7.0 | 13.0 | 0.00 | 0.00 | 0.00 | 100 | |
| 20260503175519 | 57 | 221 | 6.0 | 8.0 | 0.00 | 0.00 | 0.00 | 100 | |
| 20260503175119 | 58 | 223 | 7.0 | 10.0 | 0.00 | 0.00 | 0.00 | 100 | |
| 20260503174719 | 58 | 221 | 7.0 | 10.0 | 0.00 | 0.00 | 0.00 | 100 | |
| 20260503174319 | 58 | 232 | 7.0 | 12.0 | 0.00 | 0.00 | 0.00 | 100 | |
| 20260503173919 | 59 | 231 | 8.0 | 9.0 | 0.00 | 0.00 | 0.00 | 100 | |
| 20260503173517 | 59 | 237 | 8.0 | 13.0 | 0.00 | 0.00 | 0.00 | 100 | |
| 20260503173117 | 59 | 219 | 8.0 | 13.0 | 0.00 | 0.00 | 0.00 | 100 | |
| 20260503172717 | 59 | 240 | 7.0 | 10.0 | 0.00 | 0.00 | 0.00 | 100 | |
| 20260503172315 | 60 | 230 | 7.0 | 12.0 | 0.00 | 0.00 | 0.00 | 100 | |
| 20260503171915 | 60 | 235 | 9.0 | 12.0 | 0.00 | 0.00 | 0.00 | 100 | |
| 20260503171513 | 60 | 230 | 8.0 | 13.0 | 0.00 | 0.00 | 0.00 | 100 | |
| 20260503171113 | 61 | 236 | 8.0 | 12.0 | 0.00 | 0.00 | 0.00 | 100 | |
| 20260503170712 | 61 | 236 | 7.0 | 13.0 | 0.00 | 0.00 | 0.00 | 100 | |
| 20260503170312 | 61 | 228 | 9.0 | 14.0 | 0.00 | 0.00 | 0.00 | 100 | |
| 20260503150650 | 64 | 236 | 6.0 | 9.0 | 0.00 | 0.00 | 0.00 | 100 | |
| 20260503150250 | 64 | 241 | 7.0 | 13.0 | 0.00 | 0.00 | 0.00 | 100 | |
| 20260503140242 | 65 | 260 | 4.0 | 8.0 | 0.00 | 0.00 | 0.00 | 100 | |
| 20260503131034 | 63 | 233 | 8.0 | 14.0 | 0.00 | 0.00 | 0.00 | 100 | |
| 20260503130633 | 64 | 217 | 7.0 | 12.0 | 0.00 | 0.00 | 0.00 | 100 | |
| 20260503130234 | 63 | 265 | 4.0 | 9.0 | 0.00 | 0.00 | 0.00 | 100 | |
| 20260503120220 | 63 | 275 | 5.0 | 8.0 | 0.00 | 0.00 | 0.00 | 100 | |
| 20260503110612 | 61 | 236 | 8.0 | 11.0 | 0.00 | 0.00 | 0.00 | 100 | |
| 20260503110213 | 61 | 242 | 8.0 | 12.0 | 0.00 | 0.00 | 0.00 | 100 | |
| 20260503100156 | 60 | 250 | 7.0 | 15.0 | 0.00 | 0.00 | 0.00 | 100 | |
| 20260503090149 | 59 | 250 | 6.0 | 10.0 | 0.00 | 0.00 | 0.00 | 100 | |
| 20260503081347 | 56 | 217 | 6.0 | 9.0 | 0.00 | 0.00 | 0.00 | 100 | |
| 20260503080946 | 56 | 236 | 6.0 | 13.0 | 0.00 | 0.00 | 0.00 | 100 | |
| 20260503080544 | 56 | 200 | 4.0 | 8.0 | 0.00 | 0.00 | 0.00 | 100 | |
| 20260503080144 | 56 | 242 | 5.0 | 8.0 | 0.00 | 0.00 | 0.00 | 100 | |
| 20260503072932 | 53 | 209 | 6.0 | 14.0 | 0.00 | 0.00 | 0.00 | 100 | |
| 20260503072532 | 53 | 211 | 7.0 | 10.0 | 0.00 | 0.00 | 0.00 | 100 | |
| 20260503072133 | 53 | 210 | 8.0 | 14.0 | 0.00 | 0.00 | 0.00 | 100 | |
| 20260503071733 | 52 | 198 | 9.0 | 15.0 | 0.00 | 0.00 | 0.00 | 100 | |
| 20260503071331 | 52 | 209 | 8.0 | 10.0 | 0.00 | 0.00 | 0.00 | 100 | |
| 20260503070931 | 52 | 203 | 7.0 | 11.0 | 0.00 | 0.00 | 0.00 | 100 | |
| 20260503070531 | 52 | 200 | 8.0 | 12.0 | 0.00 | 0.00 | 0.00 | 100 | |
| 20260503070131 | 52 | 208 | 8.0 | 11.0 | 0.00 | 0.00 | 0.00 | 100 | |
| 20260503060125 | 49 | 207 | 8.0 | 13.0 | 0.00 | 0.00 | 0.00 | 100 | |
| 20260503054922 | 49 | 207 | 8.0 | 12.0 | 0.00 | 0.00 | 0.00 | 100 | |
| 20260503054522 | 48 | 203 | 11.0 | 14.0 | 0.00 | 0.00 | 0.00 | 100 | |
| 20260503054122 | 48 | 206 | 9.0 | 13.0 | 0.00 | 0.00 | 0.00 | 100 | |
| 20260503053722 | 48 | 204 | 9.0 | 12.0 | 0.00 | 0.00 | 0.00 | 100 | |
| 20260503053321 | 48 | 203 | 8.0 | 11.0 | 0.00 | 0.00 | 0.00 | 100 | |
| 20260503052920 | 48 | 206 | 10.0 | 15.0 | 0.00 | 0.00 | 0.00 | 100 | |
| 20260503052520 | 48 | 208 | 8.0 | 12.0 | 0.00 | 0.00 | 0.00 | 100 | |
| 20260503052120 | 48 | 211 | 8.0 | 11.0 | 0.00 | 0.00 | 0.00 | 100 | |
| 20260503051720 | 48 | 216 | 9.0 | 14.0 | 0.00 | 0.00 | 0.00 | 100 | |
| 20260503051309 | 48 | 208 | 8.0 | 11.0 | 0.00 | 0.00 | 0.00 | 100 | |
| 20260503050909 | 48 | 203 | 8.0 | 11.0 | 0.00 | 0.00 | 0.00 | 100 | |
| 20260503050509 | 48 | 208 | 8.0 | 11.0 | 0.00 | 0.00 | 0.00 | 100 | |
| 20260503050109 | 48 | 210 | 8.0 | 11.0 | 0.00 | 0.00 | 0.00 | 100 | |
| 20260503045709 | 48 | 213 | 8.0 | 12.0 | 0.00 | 0.00 | 0.00 | 100 | |
| 20260503045307 | 48 | 212 | 8.0 | 13.0 | 0.00 | 0.00 | 0.00 | 100 | |
| 20260503044905 | 48 | 205 | 8.0 | 11.0 | 0.00 | 0.00 | 0.00 | 100 | |
| 20260503044505 | 48 | 210 | 8.0 | 12.0 | 0.00 | 0.00 | 0.00 | 100 | |
| 20260503044105 | 47 | 211 | 8.0 | 12.0 | 0.00 | 0.00 | 0.00 | 100 | |
| 20260503043705 | 47 | 211 | 8.0 | 12.0 | 0.00 | 0.00 | 0.00 | 100 | |
| 20260503043303 | 47 | 206 | 9.0 | 13.0 | 0.00 | 0.00 | 0.00 | 100 | |
| 20260503042903 | 47 | 214 | 9.0 | 11.0 | 0.00 | 0.00 | 0.00 | 100 | |
| 20260503042503 | 47 | 201 | 9.0 | 11.0 | 0.00 | 0.00 | 0.00 | 100 | |
| 20260503042103 | 47 | 207 | 9.0 | 13.0 | 0.00 | 0.00 | 0.00 | 100 | |
| 20260503041703 | 47 | 202 | 9.0 | 12.0 | 0.00 | 0.00 | 0.00 | 100 | |
| 20260503041302 | 47 | 208 | 9.0 | 13.0 | 0.00 | 0.00 | 0.00 | 100 | |
| 20260503040902 | 47 | 200 | 9.0 | 14.0 | 0.00 | 0.00 | 0.00 | 100 | |
| 20260503040502 | 47 | 204 | 10.0 | 13.0 | 0.00 | 0.00 | 0.00 | 100 | |
| 20260503035702 | 47 | 208 | 10.0 | 15.0 | 0.00 | 0.00 | 0.00 | 100 | |
| 20260503035300 | 47 | 214 | 10.0 | 12.0 | 0.00 | 0.00 | 0.00 | 100 | |
| 20260503034900 | 47 | 209 | 10.0 | 15.0 | 0.00 | 0.00 | 0.00 | 100 | |
| 20260503034500 | 47 | 208 | 11.0 | 14.0 | 0.00 | 0.00 | 0.00 | 100 | |
| 20260503034100 | 47 | 208 | 10.0 | 15.0 | 0.00 | 0.00 | 0.00 | 100 | |
| 20260503033700 | 47 | 207 | 10.0 | 12.0 | 0.00 | 0.00 | 0.00 | 100 | |
| 20260503033258 | 47 | 206 | 11.0 | 13.0 | 0.00 | 0.00 | 0.00 | 100 | |
| 20260503032858 | 47 | 205 | 10.0 | 16.0 | 0.00 | 0.00 | 0.00 | 100 | |
| 20260503032458 | 47 | 209 | 11.0 | 14.0 | 0.00 | 0.00 | 0.00 | 100 | |
| 20260503032058 | 47 | 196 | 10.0 | 13.0 | 0.00 | 0.00 | 0.00 | 100 | |
| 20260503031658 | 47 | 212 | 10.0 | 14.0 | 0.00 | 0.00 | 0.00 | 100 | |
| 20260503031256 | 47 | 213 | 10.0 | 13.0 | 0.00 | 0.00 | 0.00 | 100 | |
| 20260503030856 | 47 | 210 | 10.0 | 14.0 | 0.00 | 0.00 | 0.00 | 100 | |
| 20260503030456 | 47 | 215 | 10.0 | 13.0 | 0.00 | 0.00 | 0.00 | 100 | |
| 20260503030056 | 47 | 209 | 11.0 | 14.0 | 0.00 | 0.00 | 0.00 | 100 | |
| 20260503025655 | 47 | 212 | 10.0 | 14.0 | 0.00 | 0.00 | 0.00 | 100 | |
| 20260503025253 | 47 | 205 | 9.0 | 12.0 | 0.00 | 0.00 | 0.00 | 100 | |
| 20260503024853 | 48 | 207 | 10.0 | 13.0 | 0.00 | 0.00 | 0.00 | 100 | |
| 20260503024454 | 48 | 209 | 11.0 | 14.0 | 0.00 | 0.00 | 0.00 | 100 | |
| 20260503024054 | 48 | 211 | 11.0 | 15.0 | 0.00 | 0.00 | 0.00 | 100 | |
| 20260503023646 | 48 | 214 | 10.0 | 13.0 | 0.00 | 0.00 | 0.00 | 100 | |
| 20260503023244 | 48 | 208 | 10.0 | 14.0 | 0.00 | 0.00 | 0.00 | 100 | |
| 20260503022844 | 48 | 210 | 9.0 | 11.0 | 0.00 | 0.00 | 0.00 | 100 | |
| 20260503022444 | 48 | 215 | 10.0 | 14.0 | 0.00 | 0.00 | 0.00 | 100 | |
| 20260503022045 | 48 | 213 | 10.0 | 15.0 | 0.00 | 0.00 | 0.00 | 100 | |
| 20260503021644 | 48 | 211 | 11.0 | 16.0 | 0.00 | 0.00 | 0.00 | 100 | |
| 20260503021242 | 48 | 209 | 10.0 | 14.0 | 0.00 | 0.00 | 0.00 | 100 | |
| 20260503020842 | 48 | 210 | 12.0 | 15.0 | 0.00 | 0.00 | 0.00 | 100 | |
| 20260503020441 | 48 | 214 | 11.0 | 15.0 | 0.00 | 0.00 | 0.00 | 100 | |
| 20260503020041 | 49 | 207 | 11.0 | 13.0 | 0.00 | 0.00 | 0.00 | 100 | |
| 20260503015641 | 48 | 210 | 11.0 | 15.0 | 0.00 | 0.00 | 0.00 | 100 | |
| 20260503015239 | 48 | 205 | 11.0 | 15.0 | 0.00 | 0.00 | 0.00 | 100 | |
| 20260503014840 | 48 | 203 | 10.0 | 12.0 | 0.00 | 0.00 | 0.00 | 100 | |
| 20260503014439 | 48 | 215 | 10.0 | 14.0 | 0.00 | 0.00 | 0.00 | 100 | |
| 20260503014039 | 48 | 215 | 10.0 | 13.0 | 0.00 | 0.00 | 0.00 | 100 | |
| 20260503013639 | 48 | 212 | 11.0 | 14.0 | 0.00 | 0.00 | 0.00 | 100 | |
| 20260503013237 | 48 | 209 | 11.0 | 15.0 | 0.00 | 0.00 | 0.00 | 100 | |
| 20260503012837 | 48 | 199 | 11.0 | 16.0 | 0.00 | 0.00 | 0.00 | 100 | |
| 20260503012436 | 48 | 204 | 11.0 | 14.0 | 0.00 | 0.00 | 0.00 | 100 | |
| 20260503011637 | 49 | 217 | 11.0 | 14.0 | 0.00 | 0.00 | 0.00 | 100 | |
| 20260503011235 | 49 | 220 | 11.0 | 14.0 | 0.00 | 0.00 | 0.00 | 100 | |
| 20260503010835 | 49 | 207 | 11.0 | 14.0 | 0.00 | 0.00 | 0.00 | 100 | |
| 20260503010435 | 49 | 222 | 11.0 | 14.0 | 0.00 | 0.00 | 0.00 | 100 | |
| 20260503010035 | 49 | 219 | 10.0 | 14.0 | 0.00 | 0.00 | 0.00 | 100 | |
| 20260503005635 | 49 | 212 | 10.0 | 14.0 | 0.00 | 0.00 | 0.00 | 100 | |
| 20260503005232 | 49 | 217 | 11.0 | 15.0 | 0.00 | 0.00 | 0.00 | 100 | |
| 20260503004832 | 48 | 212 | 10.0 | 14.0 | 0.00 | 0.00 | 0.00 | 100 | |
| 20260503004433 | 48 | 213 | 10.0 | 15.0 | 0.00 | 0.00 | 0.00 | 100 | |
| 20260503004030 | 48 | 209 | 9.0 | 14.0 | 0.00 | 0.00 | 0.00 | 100 | |
| 20260503003630 | 48 | 206 | 10.0 | 14.0 | 0.00 | 0.00 | 0.00 | 100 | |
| 20260503003229 | 48 | 208 | 10.0 | 14.0 | 0.00 | 0.00 | 0.00 | 100 | |
| 20260503002829 | 48 | 203 | 10.0 | 12.0 | 0.00 | 0.00 | 0.00 | 100 | |
| 20260503002429 | 48 | 205 | 10.0 | 13.0 | 0.00 | 0.00 | 0.00 | 100 | |
| 20260503002029 | 48 | 202 | 9.0 | 15.0 | 0.00 | 0.00 | 0.00 | 100 | |
| 20260503001629 | 48 | 202 | 9.0 | 15.0 | 0.00 | 0.00 | 0.00 | 100 | |
| 20260503001226 | 48 | 199 | 10.0 | 15.0 | 0.00 | 0.00 | 0.00 | 100 | |
| 20260503000827 | 48 | 205 | 10.0 | 15.0 | 0.00 | 0.00 | 0.00 | 100 | |
| 20260503000427 | 48 | 197 | 9.0 | 14.0 | 0.00 | 0.00 | 0.00 | 100 | |
| 20260503000017 | 48 | 202 | 9.0 | 13.0 | 0.00 | 0.00 | 0.00 | 100 | |
| 20260502235617 | 48 | 198 | 10.0 | 14.0 | 0.00 | 0.00 | 0.00 | 100 | |
| 20260502235216 | 48 | 199 | 8.0 | 12.0 | 0.00 | 0.00 | 0.00 | 100 | |
| 20260502234815 | 48 | 191 | 8.0 | 14.0 | 0.00 | 0.00 | 0.00 | 100 | |
| 20260502234415 | 48 | 196 | 9.0 | 17.0 | 0.00 | 0.00 | 0.00 | 100 | |
| 20260502234015 | 48 | 192 | 9.0 | 15.0 | 0.00 | 0.00 | 0.00 | 100 | |
| 20260502233615 | 48 | 202 | 8.0 | 14.0 | 0.00 | 0.00 | 0.00 | 100 | |
| 20260502233213 | 48 | 193 | 10.0 | 15.0 | 0.00 | 0.00 | 0.00 | 100 | |
| 20260502232812 | 48 | 207 | 8.0 | 13.0 | 0.00 | 0.00 | 0.00 | 100 | |
| 20260502232412 | 48 | 196 | 10.0 | 15.0 | 0.00 | 0.00 | 0.00 | 100 | |
| 20260502232013 | 48 | 197 | 8.0 | 14.0 | 0.00 | 0.00 | 0.00 | 100 | |
| 20260502231613 | 48 | 184 | 7.0 | 10.0 | 0.00 | 0.00 | 0.00 | 100 | |
| 20260502231211 | 49 | 188 | 8.0 | 15.0 | 0.00 | 0.00 | 0.00 | 100 | |
| 20260502230810 | 49 | 187 | 8.0 | 12.0 | 0.00 | 0.00 | 0.00 | 100 | |
| 20260502230410 | 49 | 180 | 9.0 | 16.0 | 0.00 | 0.00 | 0.00 | 100 | |
| 20260502230010 | 49 | 176 | 10.0 | 15.0 | 0.00 | 0.00 | 0.00 | 100 | |
| 20260502225610 | 49 | 171 | 11.0 | 18.0 | 0.00 | 0.00 | 0.00 | 100 | |
| 20260502225208 | 49 | 172 | 10.0 | 14.0 | 0.00 | 0.00 | 0.00 | 100 | |
| 20260502224808 | 49 | 172 | 10.0 | 18.0 | 0.00 | 0.00 | 0.00 | 100 | |
| 20260502224408 | 49 | 169 | 10.0 | 17.0 | 0.00 | 0.00 | 0.00 | 100 | |
| 20260502224008 | 49 | 169 | 11.0 | 16.0 | 0.00 | 0.00 | 0.00 | 100 | |
| 20260502223608 | 49 | 172 | 11.0 | 18.0 | 0.00 | 0.00 | 0.00 | 100 | |
| 20260502223206 | 49 | 170 | 10.0 | 14.0 | 0.00 | 0.00 | 0.00 | 100 | |
| 20260502222806 | 49 | 175 | 10.0 | 17.0 | 0.00 | 0.00 | 0.00 | 100 | |
| 20260502222405 | 49 | 178 | 8.0 | 15.0 | 0.00 | 0.00 | 0.00 | 100 | |
| 20260502222005 | 49 | 171 | 10.0 | 19.0 | 0.00 | 0.00 | 0.00 | 100 | |
| 20260502221605 | 49 | 180 | 11.0 | 15.0 | 0.00 | 0.00 | 0.00 | 100 | |
| 20260502221204 | 49 | 173 | 10.0 | 15.0 | 0.00 | 0.00 | 0.00 | 100 | |
| 20260502220804 | 49 | 173 | 9.0 | 16.0 | 0.00 | 0.00 | 0.00 | 100 | |
| 20260502220404 | 49 | 180 | 8.0 | 12.0 | 0.00 | 0.00 | 0.00 | 100 | |
| 20260502220004 | 49 | 180 | 9.0 | 16.0 | 0.00 | 0.00 | 0.00 | 100 | |
| 20260502215604 | 49 | 184 | 9.0 | 12.0 | 0.00 | 0.00 | 0.00 | 100 | |
| 20260502215202 | 49 | 183 | 8.0 | 15.0 | 0.00 | 0.00 | 0.00 | 100 | |
| 20260502214802 | 49 | 178 | 9.0 | 15.0 | 0.00 | 0.00 | 0.00 | 100 | |
| 20260502214402 | 49 | 183 | 9.0 | 12.0 | 0.00 | 0.00 | 0.00 | 100 | |
| 20260502214002 | 49 | 168 | 8.0 | 11.0 | 0.00 | 0.00 | 0.00 | 100 | |
| 20260502213602 | 49 | 183 | 8.0 | 14.0 | 0.00 | 0.00 | 0.00 | 100 | |
| 20260502213200 | 50 | 182 | 8.0 | 11.0 | 0.00 | 0.00 | 0.00 | 100 | |
| 20260502212800 | 50 | 173 | 8.0 | 13.0 | 0.00 | 0.00 | 0.00 | 100 | |
| 20260502212352 | 50 | 178 | 7.0 | 11.0 | 0.00 | 0.00 | 0.00 | 100 | |
| 20260502211952 | 50 | 173 | 8.0 | 17.0 | 0.00 | 0.00 | 0.00 | 100 | |
| 20260502211552 | 50 | 172 | 6.0 | 10.0 | 0.00 | 0.00 | 0.00 | 100 | |
| 20260502211150 | 51 | 179 | 7.0 | 13.0 | 0.00 | 0.00 | 0.00 | 100 | |
| 20260502210750 | 51 | 170 | 6.0 | 9.0 | 0.00 | 0.00 | 0.00 | 100 |